Location: Newark
(42.7133°N, 87.7910°W)
Time: 04:52:11
(UTC+00:00)

Vanguard 1 - Pass Details

Date: 21 September 2019
Orbit: 653 x 3830 km, 34.2° (Epoch: 22 October)

Event Time Altitude Azimuth Distance (km) Brightness Sun altitude
Rises 14:15:08 0° 281° (WNW) 7,047 13.9 27.2°
Reaches altitude 10° 14:21:36 10° 271° (W) 5,470 13.5 28.3°
Maximum altitude 14:32:10 24° 226° (SW) 3,341 12.8 29.9°
Drops below altitude 10° 14:39:12 10° 176° (S) 3,495 13.5 31.0°
Sets 14:42:15 0° 162° (SSE) 4,096 13.9 31.5°
